Погода в Медянке

Россия / Пермский край     56°58′24″N   56°57′29″E
темп.,
°C
ветер,
м/с
пор.,
м/с
влажн.,
%
обл.,
%
осадки,
мм/ч
давл.,
гПа
погр.,
м
6 мая, чт
чт623:00+6з6127774 0.8 1004654
02:00+4зюз612815 0.0 1005610
05:00+4з7117628 0.0 1007973
08:00+4з8127918 0.1 10091076
11:00+7зсз8115695 0.2 10111782
14:00+9зсз8114659 0.0 10131924
17:00+11зсз7104357 0.0 10141936
20:00+9з47585 0.0 1015219
7 мая, пт
пт723:00+6зюз34665 0.0 101745
02:00+5юз358625 0.0 101876
05:00+5ююз3690100 0.0 1020107
08:00+8ююз4980100 0.0 1020258
11:00+15юз68628 0.0 1019807
14:00+18юз6848100 0.0 10182191
17:00+15юз5962100 0.0 1019659
20:00+14ю3669100 0.0 1018149
8 мая, сб
сб823:00+12ю3872100 0.0 1019187
02:00+11ю3777100 0.0 1019162
05:00+10ююз3481100 0.0 101976
08:00+12юз2377100 0.0 1020143
11:00+14зюз1264100 0.0 1020449
14:00+17зюз0149100 0.0 10191318
17:00+18с1145100 0.0 10191588
20:00+16св225891 0.0 101922
9 мая, вс
вс923:00+14юв346198 0.0 101969
02:00+13вюв346699 0.0 101986
05:00+11вюв346936 0.0 102076
08:00+13вюв35655 0.0 1020205
11:00+18вюв34465 0.0 10191203
14:00+20юв4438100 0.0 10192468
17:00+19в3547100 0.0 1019372
20:00+16вюв355780 0.0 101990
10 мая, пн
пн1023:00+14юв345863 0.0 102056
02:00+13юв366185 0.0 102098
05:00+11ююв33706 0.0 102142
08:00+15ююв356399 0.0 1022172
11:00+17ююз245690 0.0 1022380
14:00+21юз4536100 0.0 10212474
17:00+19зсз5654100 0.0 1022979
20:00+10ссз5885100 0.6 1025403